Volver al catálogo

GLOBALSTAR M053

ActivoComunicacionesMEO
NORAD 25886·PAYLOAD·🇺🇸 United States

Lanzado Aug 17, 1999 desde Cape Canaveral Space Force Station

Loading…

Próximos Pases (próximas 24 horas)

TLE

ActualizadoSource: Space-Track

Época: Sep 14, 2026, 18:58 UTC

1 25886U 99043D   26257.79065205 -.00000056  00000-0  38136-3 0  9996
2 25886  51.9967 189.0508 0003280 123.2747 248.7259 11.27673278170737

Sigue GLOBALSTAR M053 en tiempo real con AllMySat

Download on the App Store